| time (UTC) | temp F | wind direction | speed knots | gust knots | rain 1hr in | rain 24hr in | rain mn in | humidity % | barometer mb |
| 20260505153025 | 37 | 339 | 1.7 | 4.3 | 0.00 | 0.30 | 0.14 | 90 | 1015.0 |
| 20260505152514 | 37 | 354 | 2.6 | 4.3 | 0.01 | 0.30 | 0.14 | 90 | 1015.0 |
| 20260505152043 | 37 | 16 | 2.6 | 5.2 | 0.01 | 0.30 | 0.14 | 90 | 1015.1 |
| 20260505151530 | 37 | 29 | 2.6 | 5.2 | 0.01 | 0.30 | 0.14 | 90 | 1015.1 |
| 20260505151022 | 37 | 354 | 2.6 | 4.3 | 0.01 | 0.30 | 0.14 | 90 | 1015.0 |
| 20260505150549 | 37 | 359 | 1.7 | 4.3 | 0.01 | 0.30 | 0.14 | 90 | 1015.1 |
| 20260505140529 | 37 | 17 | 2.6 | 8.7 | 0.01 | 0.29 | 0.13 | 90 | 1015.4 |
| 20260505124550 | 37 | 46 | 3.5 | 10.4 | 0.02 | 0.28 | 0.12 | 89 | 1014.0 |
| 20260505124019 | 37 | 281 | 5.2 | 10.4 | 0.02 | 0.28 | 0.12 | 88 | 1014.1 |
| 20260505123528 | 37 | 318 | 3.5 | 8.7 | 0.02 | 0.28 | 0.12 | 88 | 1013.9 |
| 20260505123020 | 37 | 346 | 6.1 | 8.7 | 0.03 | 0.28 | 0.12 | 88 | 1013.9 |
| 20260505122513 | 38 | 289 | 3.5 | 9.6 | 0.04 | 0.27 | 0.11 | 88 | 1013.9 |
| 20260505122020 | 38 | 310 | 3.5 | 9.6 | 0.05 | 0.27 | 0.11 | 88 | 1013.8 |
| 20260505121529 | 38 | 27 | 6.1 | 9.6 | 0.06 | 0.27 | 0.11 | 88 | 1013.7 |
| 20260505121020 | 39 | 345 | 5.2 | 10.4 | 0.06 | 0.27 | 0.11 | 88 | 1013.7 |
| 20260505120528 | 39 | 341 | 5.2 | 10.4 | 0.06 | 0.27 | 0.11 | 89 | 1013.6 |
| 20260505120020 | 39 | 37 | 6.1 | 10.4 | 0.06 | 0.27 | 0.11 | 89 | 1013.7 |
| 20260505115529 | 39 | 354 | 5.2 | 13.0 | 0.06 | 0.27 | 0.11 | 89 | 1013.5 |
| 20260505115018 | 39 | 48 | 6.1 | 13.0 | 0.06 | 0.27 | 0.11 | 89 | 1013.5 |
| 20260505114525 | 39 | 45 | 7.8 | 12.2 | 0.05 | 0.26 | 0.10 | 88 | 1013.4 |
| 20260505114017 | 39 | 31 | 5.2 | 11.3 | 0.05 | 0.26 | 0.10 | 89 | 1013.4 |
| 20260505113526 | 40 | 21 | 7.0 | 11.3 | 0.04 | 0.25 | 0.09 | 89 | 1013.4 |
| 20260505113016 | 40 | 8 | 3.5 | 11.3 | 0.05 | 0.25 | 0.09 | 88 | 1013.3 |
| 20260505112524 | 40 | 344 | 6.1 | 12.2 | 0.03 | 0.23 | 0.07 | 88 | 1013.2 |
| 20260505112012 | 40 | 359 | 4.3 | 12.2 | 0.02 | 0.22 | 0.06 | 88 | 1013.2 |
| 20260505111542 | 40 | 349 | 5.2 | 11.3 | 0.02 | 0.21 | 0.05 | 87 | 1013.2 |
| 20260505111031 | 41 | 4 | 5.2 | 12.2 | 0.03 | 0.21 | 0.05 | 88 | 1013.0 |
| 20260505110521 | 41 | 47 | 7.8 | 12.2 | 0.03 | 0.21 | 0.05 | 87 | 1013.0 |
| 20260505102024 | 43 | 14 | 7.0 | 12.2 | 0.03 | 0.19 | 0.03 | 88 | 1011.8 |
| 20260505101533 | 43 | 359 | 7.0 | 12.2 | 0.03 | 0.19 | 0.03 | 89 | 1011.8 |
| 20260505101022 | 43 | 359 | 4.3 | 10.4 | 0.02 | 0.18 | 0.02 | 89 | 1011.8 |
| 20260505100514 | 44 | 354 | 6.1 | 9.6 | 0.02 | 0.18 | 0.02 | 89 | 1011.7 |
| 20260505100026 | 44 | 308 | 4.3 | 8.7 | 0.01 | 0.17 | 0.01 | 89 | 1011.4 |
| 20260505095534 | 44 | 345 | 4.3 | 10.4 | 0.01 | 0.17 | 0.01 | 89 | 1011.3 |
| 20260505095022 | 44 | 316 | 3.5 | 9.6 | 0.00 | 0.16 | 0.00 | 89 | 1011.6 |
| 20260505094550 | 44 | 25 | 2.6 | 7.8 | 0.00 | 0.16 | 0.00 | 89 | 1011.5 |
| 20260505094020 | 44 | 345 | 3.5 | 7.0 | 0.00 | 0.16 | 0.00 | 88 | 1011.5 |
| 20260505093528 | 44 | 332 | 4.3 | 7.0 | 0.00 | 0.16 | 0.00 | 88 | 1011.4 |
| 20260505093017 | 44 | 33 | 3.5 | 11.3 | 0.00 | 0.16 | 0.00 | 88 | 1011.5 |
| 20260505092526 | 44 | 308 | 7.0 | 11.3 | 0.00 | 0.16 | 0.00 | 88 | 1011.6 |
| 20260505092015 | 45 | 347 | 3.5 | 11.3 | 0.00 | 0.16 | 0.00 | 87 | 1011.6 |
| 20260505091524 | 45 | 345 | 5.2 | 11.3 | 0.00 | 0.16 | 0.00 | 87 | 1011.4 |
| 20260505091017 | 45 | 359 | 2.6 | 13.0 | 0.00 | 0.16 | 0.00 | 86 | 1011.3 |
| 20260505090526 | 46 | 330 | 5.2 | 13.9 | 0.00 | 0.16 | 0.00 | 85 | 1011.2 |
| 20260505090014 | 48 | 344 | 7.0 | 12.2 | 0.00 | 0.16 | 0.00 | 85 | 1011.0 |
| 20260505085523 | 49 | 335 | 3.5 | 8.7 | 0.00 | 0.16 | 0.00 | 85 | 1010.8 |
| 20260505085031 | 49 | 4 | 0.9 | 6.1 | 0.00 | 0.16 | 0.00 | 87 | 1011.0 |
| 20260505084542 | 49 | 323 | 1.7 | 7.0 | 0.00 | 0.16 | 0.00 | 87 | 1011.0 |
| 20260505084031 | 49 | 324 | 2.6 | 7.0 | 0.00 | 0.16 | 0.00 | 87 | 1011.1 |
| 20260505083520 | 49 | 354 | 2.6 | 3.5 | 0.00 | 0.16 | 0.00 | 87 | 1011.2 |
| 20260505083030 | 49 | 338 | 0.0 | 0.0 | 0.00 | 0.16 | 0.00 | 88 | 1011.2 |
| 20260505082521 | 49 | 329 | 0.0 | 1.7 | 0.00 | 0.16 | 0.00 | 88 | 1011.2 |
| 20260505082014 | 49 | 329 | 0.9 | 1.7 | 0.00 | 0.16 | 0.00 | 87 | 1011.2 |
| 20260505081522 | 49 | 83 | 0.0 | 0.0 | 0.00 | 0.16 | 0.00 | 87 | 1011.3 |
| 20260505081030 | 49 | 131 | 0.0 | 0.0 | 0.00 | 0.16 | 0.00 | 88 | 1011.3 |
| 20260505080520 | 49 | 131 | 0.0 | 0.0 | 0.00 | 0.16 | 0.00 | 88 | 1011.3 |
| 20260505080029 | 49 | 131 | 0.0 | 0.0 | 0.00 | 0.16 | 0.00 | 88 | 1011.2 |
| 20260505075520 | 49 | 131 | 0.0 | 0.0 | 0.00 | 0.16 | 0.00 | 88 | 1011.0 |
| 20260505075028 | 49 | 131 | 0.0 | 0.0 | 0.00 | 0.16 | 0.00 | 88 | 1011.1 |
| 20260505074537 | 49 | 131 | 0.0 | 0.0 | 0.00 | 0.16 | 0.00 | 88 | 1011.1 |
| 20260505074025 | 49 | 131 | 0.0 | 2.6 | 0.00 | 0.16 | 0.00 | 88 | 1011.1 |
| 20260505073517 | 49 | 168 | 0.0 | 2.6 | 0.00 | 0.16 | 0.00 | 88 | 1011.1 |
| 20260505073027 | 49 | 125 | 0.0 | 1.7 | 0.00 | 0.16 | 0.00 | 89 | 1011.3 |
| 20260505072516 | 49 | 216 | 0.9 | 1.7 | 0.00 | 0.16 | 0.00 | 89 | 1011.3 |
| 20260505072024 | 49 | 137 | 0.0 | 0.0 | 0.00 | 0.16 | 0.00 | 88 | 1011.3 |
| 20260505071551 | 49 | 166 | 0.0 | 0.0 | 0.00 | 0.16 | 0.00 | 88 | 1011.5 |
| 20260505071021 | 49 | 165 | 0.0 | 0.0 | 0.00 | 0.16 | 0.00 | 88 | 1011.6 |
| 20260505070530 | 49 | 157 | 0.0 | 0.9 | 0.00 | 0.16 | 0.00 | 88 | 1011.8 |
| 20260505070022 | 49 | 139 | 0.0 | 2.6 | 0.00 | 0.16 | 0.00 | 88 | 1011.7 |
| 20260505065530 | 49 | 139 | 0.0 | 4.3 | 0.00 | 0.16 | 0.00 | 88 | 1011.5 |
| 20260505065020 | 49 | 160 | 2.6 | 4.3 | 0.00 | 0.16 | 0.00 | 88 | 1011.6 |
| 20260505064513 | 49 | 113 | 0.9 | 3.5 | 0.00 | 0.16 | 0.00 | 88 | 1011.6 |
| 20260505064022 | 49 | 210 | 0.0 | 2.6 | 0.00 | 0.16 | 0.00 | 88 | 1011.6 |
| 20260505063532 | 49 | 241 | 0.9 | 4.3 | 0.00 | 0.16 | 0.00 | 88 | 1011.6 |
| 20260505063020 | 49 | 158 | 0.9 | 4.3 | 0.00 | 0.16 | 0.00 | 88 | 1011.6 |
| 20260505062529 | 49 | 132 | 0.0 | 2.6 | 0.00 | 0.16 | 0.00 | 88 | 1011.8 |
| 20260505062020 | 49 | 172 | 0.9 | 4.3 | 0.00 | 0.16 | 0.00 | 88 | 1011.7 |
| 20260505061528 | 49 | 155 | 0.9 | 4.3 | 0.00 | 0.16 | 0.00 | 88 | 1011.8 |
| 20260505061037 | 49 | 155 | 0.9 | 2.6 | 0.00 | 0.16 | 0.00 | 87 | 1011.7 |
| 20260505060524 | 49 | 191 | 0.9 | 2.6 | 0.00 | 0.16 | 0.00 | 88 | 1011.8 |
| 20260505060014 | 49 | 222 | 0.0 | 3.5 | 0.00 | 0.16 | 0.16 | 87 | 1011.7 |
| 20260505055527 | 49 | 236 | 1.7 | 4.3 | 0.00 | 0.16 | 0.16 | 87 | 1011.8 |
| 20260505055015 | 49 | 216 | 0.9 | 5.2 | 0.00 | 0.16 | 0.16 | 87 | 1011.9 |
| 20260505054524 | 49 | 226 | 2.6 | 5.2 | 0.01 | 0.16 | 0.16 | 87 | 1012.2 |
| 20260505054032 | 49 | 193 | 0.9 | 3.5 | 0.01 | 0.16 | 0.16 | 88 | 1011.7 |
| 20260505053521 | 49 | 166 | 0.9 | 2.6 | 0.01 | 0.16 | 0.16 | 88 | 1011.5 |
| 20260505053050 | 49 | 191 | 0.0 | 2.6 | 0.01 | 0.16 | 0.16 | 87 | 1011.6 |
| 20260505052518 | 49 | 189 | 0.9 | 4.3 | 0.01 | 0.16 | 0.16 | 87 | 1011.5 |
| 20260505052027 | 49 | 149 | 0.0 | 3.5 | 0.02 | 0.16 | 0.16 | 87 | 1011.6 |
| 20260505051536 | 49 | 220 | 0.9 | 3.5 | 0.03 | 0.16 | 0.16 | 87 | 1011.6 |
| 20260505051024 | 49 | 168 | 0.9 | 2.6 | 0.03 | 0.16 | 0.16 | 87 | 1011.8 |
| 20260505050552 | 49 | 160 | 0.0 | 1.7 | 0.04 | 0.16 | 0.16 | 86 | 1011.8 |
| 20260505041522 | 49 | 90 | 0.0 | 0.0 | 0.11 | 0.13 | 0.13 | 85 | 1012.4 |
| 20260505041030 | 49 | 12 | 0.0 | 0.0 | 0.12 | 0.13 | 0.13 | 84 | 1012.3 |
| 20260505040525 | 49 | 12 | 0.0 | 0.0 | 0.11 | 0.12 | 0.12 | 84 | 1012.3 |
| 20260505040014 | 49 | 4 | 0.0 | 2.6 | 0.10 | 0.11 | 0.11 | 84 | 1012.3 |
| 20260505035522 | 49 | 322 | 0.9 | 2.6 | 0.10 | 0.11 | 0.11 | 83 | 1012.2 |
| 20260505035011 | 50 | 118 | 0.0 | 4.3 | 0.09 | 0.10 | 0.10 | 83 | 1012.3 |
| 20260505034522 | 50 | 347 | 1.7 | 5.2 | 0.09 | 0.10 | 0.10 | 82 | 1012.2 |
| 20260505034011 | 50 | 292 | 3.5 | 9.6 | 0.08 | 0.09 | 0.09 | 81 | 1012.2 |
| 20260505033522 | 50 | 324 | 4.3 | 9.6 | 0.07 | 0.08 | 0.08 | 79 | 1012.3 |
| 20260505033051 | 51 | 343 | 4.3 | 7.8 | 0.06 | 0.07 | 0.07 | 77 | 1012.3 |
| 20260505032520 | 52 | 354 | 1.7 | 7.8 | 0.05 | 0.06 | 0.06 | 74 | 1012.1 |
| 20260505032049 | 53 | 354 | 3.5 | 10.4 | 0.04 | 0.05 | 0.05 | 70 | 1011.9 |
| 20260505031521 | 54 | 301 | 5.2 | 10.4 | 0.01 | 0.02 | 0.02 | 67 | 1011.7 |
| 20260505031030 | 54 | 4 | 5.2 | 9.6 | 0.00 | 0.01 | 0.01 | 64 | 1011.6 |
| 20260505030519 | 55 | 52 | 1.7 | 4.3 | 0.00 | 0.01 | 0.01 | 64 | 1011.5 |
| 20260505030029 | 55 | 30 | 1.7 | 7.0 | 0.00 | 0.01 | 0.01 | 63 | 1011.2 |
| 20260505025540 | 55 | 26 | 1.7 | 7.0 | 0.00 | 0.01 | 0.01 | 63 | 1011.0 |
| 20260505025027 | 55 | 345 | 1.7 | 5.2 | 0.00 | 0.01 | 0.01 | 63 | 1010.9 |
| 20260505024516 | 55 | 315 | 1.7 | 7.0 | 0.00 | 0.01 | 0.01 | 63 | 1010.7 |
| 20260505024044 | 55 | 4 | 2.6 | 8.7 | 0.00 | 0.01 | 0.01 | 63 | 1010.6 |
| 20260505023552 | 55 | 17 | 2.6 | 8.7 | 0.00 | 0.01 | 0.01 | 62 | 1010.6 |
| 20260505023022 | 55 | 349 | 4.3 | 10.4 | 0.00 | 0.01 | 0.01 | 62 | 1010.5 |
| 20260505022530 | 56 | 4 | 6.1 | 10.4 | 0.00 | 0.01 | 0.01 | 61 | 1010.2 |
| 20260505022019 | 56 | 73 | 0.0 | 0.9 | 0.00 | 0.01 | 0.01 | 60 | 1010.1 |
| 20260505021512 | 55 | 4 | 0.0 | 0.9 | 0.00 | 0.01 | 0.01 | 62 | 1010.1 |
| 20260505021022 | 55 | 4 | 0.0 | 0.9 | 0.00 | 0.01 | 0.01 | 62 | 1010.1 |
| 20260505020531 | 55 | 23 | 0.0 | 0.0 | 0.00 | 0.01 | 0.01 | 60 | 1010.1 |
| 20260505020022 | 55 | 23 | 0.0 | 0.9 | 0.00 | 0.01 | 0.01 | 59 | 1010.4 |
| 20260505015530 | 55 | 23 | 0.0 | 0.9 | 0.00 | 0.01 | 0.01 | 60 | 1010.4 |
| 20260505015020 | 55 | 23 | 0.0 | 3.5 | 0.00 | 0.01 | 0.01 | 60 | 1010.4 |
| 20260505014528 | 55 | 19 | 0.9 | 3.5 | 0.00 | 0.01 | 0.01 | 62 | 1010.0 |
| 20260505014021 | 55 | 66 | 1.7 | 3.5 | 0.01 | 0.01 | 0.01 | 64 | 1009.9 |
| 20260505013513 | 55 | 77 | 1.7 | 3.5 | 0.01 | 0.01 | 0.01 | 64 | 1009.7 |
| 20260505013023 | 55 | 91 | 1.7 | 2.6 | 0.01 | 0.01 | 0.01 | 66 | 1009.8 |
| 20260505012531 | 55 | 29 | 0.0 | 2.6 | 0.01 | 0.01 | 0.01 | 66 | 1009.9 |
| 20260505012019 | 55 | 29 | 0.0 | 2.6 | 0.01 | 0.01 | 0.01 | 67 | 1009.9 |
| 20260505011528 | 55 | 62 | 1.7 | 2.6 | 0.01 | 0.01 | 0.01 | 66 | 1009.7 |
| 20260505011019 | 55 | 23 | 0.0 | 1.7 | 0.01 | 0.01 | 0.01 | 67 | 1009.7 |
| 20260505010528 | 55 | 77 | 0.0 | 2.6 | 0.01 | 0.01 | 0.01 | 65 | 1009.9 |
| 20260505010019 | 56 | 58 | 1.7 | 3.5 | 0.01 | 0.01 | 0.01 | 63 | 1009.9 |
| 20260505005548 | 56 | 159 | 1.7 | 6.1 | 0.01 | 0.01 | 0.01 | 60 | 1009.9 |
| 20260505005015 | 57 | 144 | 2.6 | 8.7 | 0.01 | 0.01 | 0.01 | 56 | 1010.0 |
| 20260505004523 | 58 | 220 | 6.1 | 9.6 | 0.01 | 0.01 | 0.01 | 53 | 1010.5 |
| 20260505004016 | 60 | 222 | 3.5 | 7.8 | 0.00 | 0.00 | 0.00 | 54 | 1010.5 |
| 20260505003545 | 61 | 185 | 4.3 | 7.8 | 0.00 | 0.00 | 0.00 | 46 | 1010.3 |
| 20260505003012 | 61 | 335 | 1.7 | 8.7 | 0.00 | 0.00 | 0.00 | 41 | 1010.2 |
| 20260505002520 | 61 | 345 | 3.5 | 10.4 | 0.00 | 0.00 | 0.00 | 40 | 1010.0 |
| 20260505002029 | 61 | 22 | 3.5 | 9.6 | 0.00 | 0.00 | 0.00 | 40 | 1009.9 |
| 20260505001540 | 61 | 333 | 5.2 | 10.4 | 0.00 | 0.00 | 0.00 | 40 | 1009.7 |
| 20260505001028 | 62 | 331 | 7.0 | 10.4 | 0.00 | 0.00 | 0.00 | 39 | 1009.5 |
| 20260505000517 | 62 | 359 | 5.2 | 8.7 | 0.00 | 0.00 | 0.00 | 38 | 1009.4 |
| 20260505000027 | 63 | 332 | 3.5 | 7.8 | 0.00 | 0.00 | 0.00 | 37 | 1009.2 |
| 20260504235515 | 63 | 289 | 3.5 | 5.2 | 0.00 | 0.00 | 0.00 | 36 | 1009.2 |
| 20260504235024 | 63 | 314 | 1.7 | 7.0 | 0.00 | 0.00 | 0.00 | 36 | 1009.0 |
| 20260504234516 | 63 | 339 | 2.6 | 8.7 | 0.00 | 0.00 | 0.00 | 35 | 1009.0 |
| 20260504234025 | 63 | 301 | 5.2 | 8.7 | 0.00 | 0.00 | 0.00 | 35 | 1009.0 |
| 20260504233514 | 63 | 327 | 3.5 | 8.7 | 0.00 | 0.00 | 0.00 | 35 | 1008.8 |
| 20260504233044 | 63 | 354 | 4.3 | 8.7 | 0.00 | 0.00 | 0.00 | 34 | 1008.9 |
| 20260504232512 | 63 | 354 | 3.5 | 5.2 | 0.00 | 0.00 | 0.00 | 34 | 1008.9 |
| 20260504232022 | 63 | 341 | 2.6 | 11.3 | 0.00 | 0.00 | 0.00 | 35 | 1008.5 |
| 20260504231530 | 63 | 328 | 4.3 | 13.9 | 0.00 | 0.00 | 0.00 | 35 | 1008.5 |
| 20260504231021 | 64 | 8 | 8.7 | 13.9 | 0.00 | 0.00 | 0.00 | 34 | 1008.5 |
| 20260504230530 | 64 | 327 | 4.3 | 12.2 | 0.00 | 0.00 | 0.00 | 33 | 1008.4 |
| 20260504230025 | 65 | 38 | 3.5 | 12.2 | 0.00 | 0.00 | 0.00 | 34 | 1008.2 |
| 20260504225513 | 65 | 330 | 4.3 | 11.3 | 0.00 | 0.00 | 0.00 | 33 | 1008.3 |
| 20260504225022 | 65 | 330 | 4.3 | 11.3 | 0.00 | 0.00 | 0.00 | 32 | 1008.1 |
| 20260504224531 | 65 | 359 | 5.2 | 11.3 | 0.00 | 0.00 | 0.00 | 31 | 1008.1 |
| 20260504224022 | 65 | 320 | 6.1 | 12.2 | 0.00 | 0.00 | 0.00 | 31 | 1008.1 |
| 20260504223530 | 65 | 347 | 7.0 | 12.2 | 0.00 | 0.00 | 0.00 | 31 | 1008.0 |
| 20260504223042 | 65 | 15 | 5.2 | 13.0 | 0.00 | 0.00 | 0.00 | 31 | 1008.0 |
| 20260504222530 | 64 | 8 | 6.1 | 16.5 | 0.00 | 0.00 | 0.00 | 32 | 1007.9 |
| 20260504222021 | 65 | 299 | 10.4 | 16.5 | 0.00 | 0.00 | 0.00 | 32 | 1008.0 |
| 20260504221513 | 65 | 342 | 4.3 | 14.8 | 0.00 | 0.00 | 0.00 | 31 | 1007.8 |
| 20260504221022 | 65 | 289 | 7.8 | 14.8 | 0.00 | 0.00 | 0.00 | 31 | 1007.9 |
| 20260504220512 | 65 | 331 | 6.1 | 15.6 | 0.00 | 0.00 | 0.00 | 31 | 1007.9 |
| 20260504220021 | 65 | 349 | 7.8 | 15.6 | 0.00 | 0.00 | 0.00 | 31 | 1007.5 |
| 20260504215549 | 65 | 302 | 7.0 | 19.1 | 0.00 | 0.00 | 0.00 | 31 | 1007.5 |
| 20260504215019 | 65 | 35 | 11.3 | 19.1 | 0.00 | 0.00 | 0.00 | 30 | 1007.4 |
| 20260504214528 | 67 | 354 | 7.0 | 18.2 | 0.00 | 0.00 | 0.00 | 29 | 1007.3 |
| 20260504214019 | 68 | 12 | 6.1 | 12.2 | 0.00 | 0.00 | 0.00 | 24 | 1007.3 |
| 20260504213528 | 68 | 27 | 4.3 | 11.3 | 0.00 | 0.00 | 0.00 | 24 | 1007.2 |
| 20260504213018 | 68 | 95 | 5.2 | 9.6 | 0.00 | 0.00 | 0.00 | 23 | 1007.4 |
| 20260504212530 | 68 | 92 | 4.3 | 11.3 | 0.00 | 0.00 | 0.00 | 23 | 1007.3 |
| 20260504212019 | 68 | 15 | 3.5 | 11.3 | 0.00 | 0.00 | 0.00 | 23 | 1007.4 |
| 20260504211528 | 68 | 4 | 6.1 | 9.6 | 0.00 | 0.00 | 0.00 | 24 | 1007.5 |
| 20260504211018 | 68 | 16 | 4.3 | 9.6 | 0.00 | 0.00 | 0.00 | 23 | 1007.6 |
| 20260504210526 | 68 | 8 | 4.3 | 10.4 | 0.00 | 0.00 | 0.00 | 24 | 1007.7 |
| 20260504210016 | 69 | 4 | 6.1 | 10.4 | 0.00 | 0.00 | 0.00 | 23 | 1007.8 |
| 20260504205523 | 69 | 246 | 6.1 | 10.4 | 0.00 | 0.00 | 0.00 | 23 | 1007.8 |
| 20260504205012 | 69 | 302 | 6.1 | 13.0 | 0.00 | 0.00 | 0.00 | 24 | 1007.7 |
| 20260504204522 | 69 | 22 | 7.0 | 13.0 | 0.00 | 0.00 | 0.00 | 24 | 1007.8 |
| 20260504204015 | 68 | 341 | 6.1 | 13.0 | 0.00 | 0.00 | 0.00 | 25 | 1007.8 |
| 20260504203524 | 68 | 344 | 6.1 | 13.0 | 0.00 | 0.00 | 0.00 | 25 | 1007.8 |
| 20260504203034 | 67 | 338 | 7.0 | 13.9 | 0.00 | 0.00 | 0.00 | 25 | 1007.8 |
| 20260504202521 | 68 | 348 | 7.8 | 13.9 | 0.00 | 0.00 | 0.00 | 25 | 1007.9 |
| 20260504202028 | 67 | 9 | 4.3 | 11.3 | 0.00 | 0.00 | 0.00 | 25 | 1008.0 |
| 20260504201516 | 67 | 324 | 4.3 | 13.0 | 0.00 | 0.00 | 0.00 | 25 | 1008.0 |
| 20260504201025 | 67 | 35 | 2.6 | 19.1 | 0.00 | 0.00 | 0.00 | 24 | 1007.9 |
| 20260504200513 | 66 | 336 | 7.0 | 19.1 | 0.00 | 0.00 | 0.00 | 26 | 1007.8 |
| 20260504200023 | 65 | 300 | 8.7 | 17.4 | 0.00 | 0.00 | 0.00 | 27 | 1008.0 |
| 20260504195512 | 65 | 335 | 12.2 | 17.4 | 0.00 | 0.00 | 0.00 | 28 | 1008.1 |
| 20260504195042 | 65 | 354 | 7.8 | 13.0 | 0.00 | 0.00 | 0.00 | 27 | 1008.3 |
| 20260504194514 | 65 | 354 | 6.1 | 13.0 | 0.00 | 0.00 | 0.00 | 28 | 1008.4 |
| 20260504194022 | 65 | 316 | 7.0 | 11.3 | 0.00 | 0.00 | 0.00 | 28 | 1008.9 |
| 20260504193531 | 65 | 29 | 5.2 | 10.4 | 0.00 | 0.00 | 0.00 | 28 | 1009.0 |
| 20260504193022 | 65 | 266 | 0.9 | 10.4 | 0.00 | 0.00 | 0.00 | 29 | 1009.1 |
| 20260504192531 | 66 | 239 | 6.1 | 13.9 | 0.00 | 0.00 | 0.00 | 28 | 1009.2 |
| 20260504192021 | 67 | 188 | 6.1 | 13.9 | 0.00 | 0.00 | 0.00 | 30 | 1009.0 |
| 20260504191530 | 68 | 217 | 5.2 | 10.4 | 0.00 | 0.00 | 0.00 | 24 | 1008.7 |
| 20260504191020 | 69 | 203 | 5.2 | 9.6 | 0.00 | 0.00 | 0.00 | 23 | 1008.4 |
| 20260504190529 | 70 | 139 | 1.7 | 6.1 | 0.00 | 0.00 | 0.00 | 21 | 1008.2 |
| 20260504190024 | 70 | 206 | 1.7 | 2.6 | 0.00 | 0.00 | 0.00 | 20 | 1008.2 |
| 20260504185513 | 70 | 341 | 0.9 | 7.0 | 0.00 | 0.00 | 0.00 | 19 | 1008.1 |
| 20260504185022 | 70 | 348 | 2.6 | 7.0 | 0.00 | 0.00 | 0.00 | 20 | 1007.9 |
| 20260504184531 | 70 | 34 | 3.5 | 9.6 | 0.00 | 0.00 | 0.00 | 19 | 1008.0 |
| 20260504184022 | 70 | 354 | 4.3 | 9.6 | 0.00 | 0.00 | 0.00 | 21 | 1007.8 |
| 20260504183531 | 70 | 354 | 5.2 | 9.6 | 0.00 | 0.00 | 0.00 | 21 | 1007.8 |
| 20260504183042 | 71 | 38 | 4.3 | 8.7 | 0.00 | 0.00 | 0.00 | 20 | 1007.8 |
| 20260504182530 | 71 | 354 | 4.3 | 10.4 | 0.00 | 0.00 | 0.00 | 21 | 1007.8 |
| 20260504182019 | 71 | 287 | 4.3 | 7.8 | 0.00 | 0.00 | 0.00 | 21 | 1007.8 |
| 20260504181512 | 71 | 48 | 1.7 | 11.3 | 0.00 | 0.00 | 0.00 | 21 | 1007.8 |
| 20260504181041 | 72 | 359 | 4.3 | 11.3 | 0.00 | 0.00 | 0.00 | 21 | 1007.8 |
| 20260504180529 | 72 | 156 | 1.7 | 5.2 | 0.00 | 0.00 | 0.00 | 21 | 1007.9 |
| 20260504180019 | 72 | 324 | 1.7 | 6.1 | 0.00 | 0.00 | 0.00 | 22 | 1008.0 |
| 20260504175527 | 71 | 241 | 1.7 | 7.8 | 0.00 | 0.00 | 0.00 | 21 | 1007.9 |
| 20260504175016 | 71 | 341 | 2.6 | 7.8 | 0.00 | 0.00 | 0.00 | 21 | 1008.1 |
| 20260504174545 | 72 | 331 | 2.6 | 7.8 | 0.00 | 0.00 | 0.00 | 20 | 1008.3 |
| 20260504174033 | 71 | 344 | 4.3 | 9.6 | 0.00 | 0.00 | 0.00 | 21 | 1008.2 |
| 20260504173522 | 71 | 354 | 6.1 | 9.6 | 0.00 | 0.00 | 0.00 | 20 | 1008.5 |
| 20260504173011 | 72 | 340 | 3.5 | 8.7 | 0.00 | 0.00 | 0.00 | 20 | 1008.5 |
| 20260504172522 | 72 | 10 | 4.3 | 9.6 | 0.00 | 0.00 | 0.00 | 21 | 1008.6 |
| 20260504172013 | 71 | 42 | 3.5 | 9.6 | 0.00 | 0.00 | 0.00 | 21 | 1008.5 |
| 20260504171524 | 72 | 321 | 3.5 | 7.8 | 0.00 | 0.00 | 0.00 | 21 | 1008.5 |
| 20260504171012 | 71 | 88 | 1.7 | 8.7 | 0.00 | 0.00 | 0.00 | 22 | 1008.6 |
| 20260504170521 | 71 | 297 | 5.2 | 8.7 | 0.00 | 0.00 | 0.00 | 20 | 1008.7 |